Weather History for Appleton, MN

Change the Weather History Date:

Monday, May 19, 2014

  Actual Average Record
Temperature  
Mean Temperature 62 °F -  
Max Temperature 69 °F 65 °F 82 °F (1999)
Min Temperature 55 °F 44 °F 30 °F (2002)
Degree Days  
Heating Degree Days 3    
Growing Degree Days 12 (Base 50)    
Moisture  
Dew Point 50 °F    
Average Humidity 66    
Maximum Humidity 88    
Minimum Humidity 34    
Precipitation  
Precipitation 0.12 in - - ()
Sea Level Pressure  
Sea Level Pressure 29.72 in    
Wind  
Wind Speed 15 mph (SE)    
Max Wind Speed 21 mph    
Max Gust Speed 29 mph    
Visibility 9 miles    
Events Rain , Thunderstorm    
Averages and records for this station are not official NWS values.
T = Trace of Precipitation, MM = Missing Value Source: NWS Daily Summary

Daily Weather History Graph

Daily Weather History Graph

Search for Another Location

Airport:

Trip Planner

Search our weather history database for the weather conditions in past years. The results will help you decide how hot, cold, wet, or windy it might be!

Date:

Astronomy

May. 19, 2014 Rise Set
Actual Time 5:49 AM CDT 8:51 PM CDT
Civil Twilight 5:15 AM CDT 9:26 PM CDT
Nautical Twilight 4:30 AM CDT 10:11 PM CDT
Astronomical Twilight 3:36 AM CDT 11:06 PM CDT
Moon 12:36 AM CDT (5/19) 10:53 AM CDT (5/19)
Length of Visible Light 16h 11m
Length of Day
15h 01m
Waning Gibbous, 71% of the Moon is Illuminated
May 19
Waning Gibbous
May 21
Last Quarter
May 28
New
Jun 5
First Quarter
Jun 12
Full

Hourly Weather History & Observations

Time (CDT) Temp. Dew Point Humidity Pressure Visibility Wind Dir Wind Speed Gust Speed Precip Events Conditions
12:13 AM 64.4 °F 35.6 °F 34% 29.87 in 10.0 mi SSE 12.7 mph 19.6 mph N/A   Overcast
12:34 AM 64.4 °F 37.4 °F 37% 29.87 in 10.0 mi SSE 15.0 mph 19.6 mph N/A   Overcast
12:54 AM 64.4 °F 37.4 °F 37% 29.87 in 10.0 mi SSE 15.0 mph 21.9 mph N/A   Overcast
1:14 AM 64.4 °F 37.4 °F 37% 29.87 in 10.0 mi SSE 17.3 mph 24.2 mph N/A   Overcast
1:34 AM 64.4 °F 37.4 °F 37% 29.86 in 10.0 mi SSE 17.3 mph 26.5 mph N/A   Overcast
1:54 AM 64.4 °F 37.4 °F 37% 29.85 in 10.0 mi SSE 15.0 mph 27.6 mph N/A   Overcast
2:13 AM 64.4 °F 37.4 °F 37% 29.85 in 10.0 mi SSE 17.3 mph 20.7 mph N/A   Overcast
2:34 AM 62.6 °F 39.2 °F 42% 29.83 in 10.0 mi SSE 15.0 mph - N/A   Overcast
2:54 AM 62.6 °F 39.2 °F 42% 29.82 in 10.0 mi SSE 13.8 mph 20.7 mph N/A   Overcast
3:13 AM 62.6 °F 39.2 °F 42% 29.81 in 10.0 mi SE 15.0 mph 23.0 mph N/A   Overcast
3:34 AM 62.6 °F 39.2 °F 42% 29.79 in 10.0 mi SE 16.1 mph 19.6 mph N/A   Overcast
3:55 AM 62.6 °F 41.0 °F 45% 29.78 in 10.0 mi SE 17.3 mph 24.2 mph N/A   Overcast
4:14 AM 62.6 °F 41.0 °F 45% 29.77 in 10.0 mi SE 16.1 mph 24.2 mph N/A   Scattered Clouds
4:34 AM 62.6 °F 42.8 °F 48% 29.76 in 10.0 mi SE 15.0 mph 20.7 mph N/A   Mostly Cloudy
4:54 AM 60.8 °F 42.8 °F 52% 29.75 in 10.0 mi SE 15.0 mph 21.9 mph N/A   Scattered Clouds
5:15 AM 60.8 °F 42.8 °F 52% 29.73 in 10.0 mi SE 16.1 mph 25.3 mph N/A   Scattered Clouds
5:34 AM 60.8 °F 42.8 °F 52% 29.74 in 10.0 mi SE 17.3 mph 24.2 mph N/A   Scattered Clouds
5:54 AM 60.8 °F 42.8 °F 52% 29.74 in 10.0 mi SE 17.3 mph 21.9 mph N/A Thunderstorm Mostly Cloudy
6:14 AM 60.8 °F 42.8 °F 52% 29.72 in 10.0 mi SE 19.6 mph 25.3 mph N/A Thunderstorm Scattered Clouds
6:34 AM 62.6 °F 42.8 °F 48% 29.79 in 10.0 mi NNW 16.1 mph 27.6 mph N/A Thunderstorm Thunderstorm
6:54 AM 60.8 °F 42.8 °F 52% 29.75 in 10.0 mi SE 15.0 mph 24.2 mph N/A Thunderstorm Thunderstorm
7:14 AM 57.2 °F 46.4 °F 67% 29.73 in 10.0 mi ESE 16.1 mph 24.2 mph N/A Rain , Thunderstorm Light Thunderstorms and Rain
7:33 AM 55.4 °F 48.2 °F 77% 29.74 in 7.0 mi SE 15.0 mph - 0.12 in Rain , Thunderstorm Heavy Thunderstorms and Rain
8:34 AM 55.4 °F 48.2 °F 77% 29.72 in 10.0 mi ESE 16.1 mph 21.9 mph N/A Thunderstorm Overcast
8:54 AM 55.4 °F 48.2 °F 77% 29.71 in 10.0 mi ESE 19.6 mph 24.2 mph N/A   Overcast
9:53 AM 55.4 °F 48.2 °F 77% 29.75 in 10.0 mi ESE 12.7 mph - N/A Rain Light Rain
10:14 AM 57.2 °F 48.2 °F 72% 29.73 in 10.0 mi ESE 15.0 mph 23.0 mph N/A   Overcast
10:34 AM 57.2 °F 48.2 °F 72% 29.71 in 10.0 mi SE 19.6 mph 25.3 mph N/A   Overcast
10:53 AM 57.2 °F 48.2 °F 72% 29.71 in 10.0 mi SE 16.1 mph 25.3 mph N/A   Overcast
11:14 AM 59.0 °F 50.0 °F 72% 29.70 in 10.0 mi SE 16.1 mph 25.3 mph N/A   Overcast
11:33 AM 60.8 °F 51.8 °F 72% 29.70 in 10.0 mi SE 17.3 mph 24.2 mph N/A   Overcast
11:54 AM 60.8 °F 51.8 °F 72% 29.70 in 10.0 mi SE 16.1 mph 24.2 mph N/A   Mostly Cloudy
12:14 PM 62.6 °F 51.8 °F 68% 29.69 in 10.0 mi SE 18.4 mph 27.6 mph N/A   Overcast
12:34 PM 62.6 °F 53.6 °F 72% 29.69 in 10.0 mi SE 18.4 mph 27.6 mph N/A   Mostly Cloudy
1:14 PM 62.6 °F 53.6 °F 72% 29.68 in 10.0 mi SE 20.7 mph 28.8 mph N/A   Mostly Cloudy
1:34 PM 62.6 °F 53.6 °F 72% 29.67 in 10.0 mi SE 18.4 mph 26.5 mph N/A   Scattered Clouds
1:53 PM 62.6 °F 53.6 °F 72% 29.66 in 10.0 mi SE 19.6 mph 25.3 mph N/A   Scattered Clouds
2:14 PM 62.6 °F 53.6 °F 72% 29.67 in 10.0 mi SE 12.7 mph 21.9 mph N/A Thunderstorm Scattered Clouds
2:34 PM 62.6 °F 55.4 °F 77% 29.67 in 10.0 mi SSE 19.6 mph 24.2 mph N/A   Mostly Cloudy
2:54 PM 64.4 °F 55.4 °F 73% 29.66 in 10.0 mi SSE 13.8 mph 28.8 mph N/A   Mostly Cloudy
3:13 PM 68.0 °F 55.4 °F 64% 29.66 in 10.0 mi SSE 20.7 mph 27.6 mph N/A   Mostly Cloudy
3:34 PM 69.8 °F 57.2 °F 64% 29.66 in 10.0 mi SSE 17.3 mph 24.2 mph N/A   Scattered Clouds
3:53 PM 66.2 °F 57.2 °F 73% 29.67 in 10.0 mi SSE 18.4 mph 25.3 mph N/A   Scattered Clouds
4:13 PM 68.0 °F 57.2 °F 68% 29.67 in 10.0 mi SSE 18.4 mph 24.2 mph N/A   Scattered Clouds
4:33 PM 66.2 °F 57.2 °F 73% 29.66 in 10.0 mi SE 17.3 mph 23.0 mph N/A   Scattered Clouds
4:54 PM 66.2 °F 57.2 °F 73% 29.67 in 10.0 mi SE 15.0 mph 23.0 mph N/A   Clear
5:15 PM 66.2 °F 57.2 °F 73% 29.67 in 10.0 mi SE 15.0 mph 20.7 mph N/A   Clear
5:54 PM 66.2 °F 57.2 °F 73% 29.67 in 7.0 mi SE 11.5 mph 20.7 mph N/A   Clear
6:13 PM 64.4 °F 57.2 °F 77% 29.67 in 7.0 mi SE 11.5 mph - N/A   Clear
6:34 PM 66.2 °F 57.2 °F 73% 29.67 in 10.0 mi SE 13.8 mph - N/A   Clear
6:53 PM 64.4 °F 57.2 °F 77% 29.67 in 10.0 mi SE 10.4 mph - N/A   Clear
7:14 PM 64.4 °F 57.2 °F 77% 29.67 in 7.0 mi SE 10.4 mph 17.3 mph N/A   Clear
7:33 PM 64.4 °F 57.2 °F 77% 29.68 in 7.0 mi SE 11.5 mph - N/A   Clear
7:53 PM 64.4 °F 57.2 °F 77% 29.67 in 7.0 mi SE 13.8 mph - N/A   Clear
8:13 PM 62.6 °F 57.2 °F 82% 29.67 in 7.0 mi SE 13.8 mph 17.3 mph N/A   Clear
8:33 PM 62.6 °F 57.2 °F 82% 29.67 in 5.0 mi SE 12.7 mph - N/A   Haze
8:54 PM 62.6 °F 57.2 °F 82% 29.67 in 5.0 mi SE 11.5 mph - N/A   Clear
9:15 PM 62.6 °F 57.2 °F 82% 29.66 in 5.0 mi ESE 15.0 mph - N/A   Clear
9:34 PM 60.8 °F 57.2 °F 88% 29.68 in 5.0 mi SE 10.4 mph - N/A   Clear
9:53 PM 60.8 °F 57.2 °F 88% 29.69 in 5.0 mi SE 9.2 mph - N/A   Clear
10:14 PM 60.8 °F 57.2 °F 88% 29.69 in 4.0 mi ESE 10.4 mph - N/A   Clear
10:34 PM 60.8 °F 57.2 °F 88% 29.69 in 4.0 mi SE 9.2 mph - N/A   Clear
10:56 PM 60.8 °F 57.2 °F 88% 29.70 in 4.0 mi SSE 6.9 mph - N/A   Clear
11:14 PM 60.8 °F 55.4 °F 82% 29.70 in 3.0 mi SSE 3.5 mph - N/A   Clear
11:34 PM 59.0 °F 55.4 °F 88% 29.71 in 2.5 mi Calm Calm - N/A   Clear
11:54 PM 59.0 °F 55.4 °F 88% 29.71 in 2.5 mi SSE 3.5 mph - N/A   Clear